Terminal Aerodrome Forecast
Issued by NWS

Home | Current Version | Previous Version | Text Only | Print | Product List | Glossary On
Versions: 1 2 3 4 5 6 7 8 9 10 11 12 13 14 15 16 17 18 19 20 21 22 23 24 25 26 27
000
FTUS44 KLZK 271000 AAC
TAFHOT
TAF AMD
KHOT 271055Z 2711/2806 17006KT P6SM SCT030 SCT100 OVC250
      TEMPO 2711/2714 BKN020
     FM271400 22006KT P6SM VCSH SCT035 SCT100 BKN250
     FM271800 22007KT P6SM VCTS SCT035CB BKN100 OVC250=

USA.gov is the U.S. government's official web portal to all federal, state and local government web resources and services.